Time,TemperatureF,DewpointF,PressureIn,WindDirection,WindDirectionDegrees,WindSpeedMPH,WindSpeedGustMPH,Humidity,HourlyPrecipIn,Conditions,Clouds,dailyrainin,SolarRadiationWatts/m^2,SoftwareType,DateUTC
2013-01-08 00:12:00,30.0,22.0,-100.00,WSW,248,22.0,23.0,73,0.00,,,0.00,0.000000,,2013-01-08 07:12:00,
2013-01-08 00:22:00,30.0,22.0,-100.00,WSW,248,22.0,23.0,73,0.00,,,0.00,0.000000,,2013-01-08 07:22:00,
2013-01-08 00:32:00,30.0,22.0,-100.00,WSW,248,22.0,23.0,73,0.00,,,0.00,0.000000,,2013-01-08 07:32:00,
2013-01-08 00:42:00,30.0,22.0,-100.00,WSW,248,22.0,23.0,73,0.00,,,0.00,0.000000,,2013-01-08 07:42:00,
2013-01-08 00:52:00,30.0,22.0,-100.00,WSW,248,22.0,23.0,73,0.00,,,0.00,0.000000,,2013-01-08 07:52:00,
2013-01-08 01:22:00,32.0,20.0,-100.00,WSW,246,19.0,31.0,60,0.00,,,0.00,0.000000,,2013-01-08 08:22:00,
2013-01-08 01:32:00,32.0,20.0,-100.00,WSW,246,19.0,31.0,60,0.00,,,0.00,0.000000,,2013-01-08 08:32:00,
2013-01-08 01:42:00,32.0,20.0,-100.00,WSW,246,19.0,31.0,60,0.00,,,0.00,0.000000,,2013-01-08 08:42:00,
2013-01-08 01:52:00,32.0,20.0,-100.00,WSW,246,19.0,31.0,60,0.00,,,0.00,0.000000,,2013-01-08 08:52:00,
2013-01-08 02:12:00,32.0,17.0,-100.00,WSW,256,15.0,32.0,53,0.00,,,0.00,0.000000,,2013-01-08 09:12:00,
2013-01-08 02:22:00,32.0,17.0,-100.00,WSW,256,15.0,32.0,53,0.00,,,0.00,0.000000,,2013-01-08 09:22:00,
2013-01-08 02:32:00,32.0,17.0,-100.00,WSW,256,15.0,32.0,53,0.00,,,0.00,0.000000,,2013-01-08 09:32:00,
2013-01-08 02:42:00,32.0,17.0,-100.00,WSW,256,15.0,32.0,53,0.00,,,0.00,0.000000,,2013-01-08 09:42:00,
2013-01-08 02:52:00,32.0,17.0,-100.00,WSW,256,15.0,32.0,53,0.00,,,0.00,0.000000,,2013-01-08 09:52:00,
2013-01-08 03:12:00,30.0,21.0,-100.00,WSW,237,13.0,33.0,68,0.00,,,0.00,0.000000,,2013-01-08 10:12:00,
2013-01-08 03:22:00,30.0,21.0,-100.00,WSW,237,13.0,33.0,68,0.00,,,0.00,0.000000,,2013-01-08 10:22:00,
2013-01-08 03:32:00,30.0,21.0,-100.00,WSW,237,13.0,33.0,68,0.00,,,0.00,0.000000,,2013-01-08 10:32:00,
2013-01-08 03:42:00,30.0,21.0,-100.00,WSW,237,13.0,33.0,68,0.00,,,0.00,0.000000,,2013-01-08 10:42:00,
2013-01-08 03:52:00,30.0,21.0,-100.00,WSW,237,13.0,33.0,68,0.00,,,0.00,0.000000,,2013-01-08 10:52:00,
2013-01-08 04:12:00,31.0,17.0,-100.00,WSW,248,12.0,32.0,55,0.00,,,0.00,0.000000,,2013-01-08 11:12:00,
2013-01-08 04:22:00,31.0,17.0,-100.00,WSW,248,12.0,32.0,55,0.00,,,0.00,0.000000,,2013-01-08 11:22:00,
2013-01-08 04:32:00,31.0,17.0,-100.00,WSW,248,12.0,32.0,55,0.00,,,0.00,0.000000,,2013-01-08 11:32:00,
2013-01-08 04:42:00,31.0,17.0,-100.00,WSW,248,12.0,32.0,55,0.00,,,0.00,0.000000,,2013-01-08 11:42:00,
2013-01-08 04:52:00,31.0,17.0,-100.00,WSW,248,12.0,32.0,55,0.00,,,0.00,0.000000,,2013-01-08 11:52:00,
2013-01-08 05:12:00,30.0,15.0,-100.00,WSW,252,17.0,28.0,52,0.00,,,0.00,0.000000,,2013-01-08 12:12:00,
2013-01-08 05:22:00,30.0,15.0,-100.00,WSW,252,17.0,28.0,52,0.00,,,0.00,0.000000,,2013-01-08 12:22:00,
2013-01-08 05:32:00,30.0,15.0,-100.00,WSW,252,17.0,28.0,52,0.00,,,0.00,0.000000,,2013-01-08 12:32:00,
2013-01-08 05:42:00,30.0,15.0,-100.00,WSW,252,17.0,28.0,52,0.00,,,0.00,0.000000,,2013-01-08 12:42:00,
2013-01-08 05:52:00,30.0,15.0,-100.00,WSW,252,17.0,28.0,52,0.00,,,0.00,0.000000,,2013-01-08 12:52:00,
2013-01-08 06:12:00,30.0,12.0,-100.00,West,273,19.0,41.0,47,0.00,,,-99.99,0.000000,,2013-01-08 13:12:00,
2013-01-08 06:22:00,30.0,12.0,-100.00,West,273,19.0,41.0,47,0.00,,,-99.99,0.000000,,2013-01-08 13:22:00,
2013-01-08 06:32:00,30.0,12.0,-100.00,West,273,19.0,41.0,47,0.00,,,-99.99,0.000000,,2013-01-08 13:32:00,
2013-01-08 06:42:00,30.0,12.0,-100.00,West,273,19.0,41.0,47,0.00,,,-99.99,0.000000,,2013-01-08 13:42:00,
2013-01-08 06:52:00,30.0,12.0,-100.00,West,273,19.0,41.0,47,0.00,,,-99.99,0.000000,,2013-01-08 13:52:00,
2013-01-08 07:12:00,30.0,10.0,-100.00,West,272,23.0,38.0,43,0.00,,,0.00,0.000000,,2013-01-08 14:12:00,
2013-01-08 07:23:00,30.0,10.0,-100.00,West,272,23.0,38.0,43,0.00,,,0.00,0.000000,,2013-01-08 14:23:00,
2013-01-08 07:33:00,30.0,10.0,-100.00,West,272,23.0,38.0,43,0.00,,,0.00,0.000000,,2013-01-08 14:33:00,
2013-01-08 07:42:00,30.0,10.0,-100.00,West,272,23.0,38.0,43,0.00,,,0.00,0.000000,,2013-01-08 14:42:00,
2013-01-08 07:52:00,30.0,10.0,-100.00,West,272,23.0,38.0,43,0.00,,,0.00,0.000000,,2013-01-08 14:52:00,
2013-01-08 08:12:00,29.0,9.0,-100.00,West,270,22.0,48.0,42,0.00,,,0.00,0.000000,,2013-01-08 15:12:00,
2013-01-08 08:22:00,29.0,9.0,-100.00,West,270,22.0,48.0,42,0.00,,,0.00,0.000000,,2013-01-08 15:22:00,
2013-01-08 08:33:00,29.0,9.0,-100.00,West,270,22.0,48.0,42,0.00,,,0.00,0.000000,,2013-01-08 15:33:00,
2013-01-08 08:42:00,29.0,9.0,-100.00,West,270,22.0,48.0,42,0.00,,,0.00,0.000000,,2013-01-08 15:42:00,
2013-01-08 08:52:00,29.0,9.0,-100.00,West,270,22.0,48.0,42,0.00,,,0.00,0.000000,,2013-01-08 15:52:00,
2013-01-08 09:12:00,29.0,8.0,-100.00,West,281,25.0,34.0,40,0.00,,,0.00,10.000000,,2013-01-08 16:12:00,
2013-01-08 09:22:00,29.0,8.0,-100.00,West,281,25.0,34.0,40,0.00,,,0.00,10.000000,,2013-01-08 16:22:00,
2013-01-08 09:33:00,29.0,8.0,-100.00,West,281,25.0,34.0,40,0.00,,,0.00,10.000000,,2013-01-08 16:33:00,
2013-01-08 09:42:00,29.0,8.0,-100.00,West,281,25.0,34.0,40,0.00,,,0.00,10.000000,,2013-01-08 16:42:00,
2013-01-08 09:52:00,29.0,8.0,-100.00,West,281,25.0,34.0,40,0.00,,,0.00,10.000000,,2013-01-08 16:52:00,
2013-01-08 10:12:00,29.0,7.0,-100.00,WNW,283,28.0,44.0,39,0.00,,,0.00,47.000000,,2013-01-08 17:12:00,
2013-01-08 10:23:00,29.0,7.0,-100.00,WNW,283,28.0,44.0,39,0.00,,,0.00,47.000000,,2013-01-08 17:23:00,
2013-01-08 10:33:00,29.0,7.0,-100.00,WNW,283,28.0,44.0,39,0.00,,,0.00,47.000000,,2013-01-08 17:33:00,
2013-01-08 10:42:00,29.0,7.0,-100.00,WNW,283,28.0,44.0,39,0.00,,,0.00,47.000000,,2013-01-08 17:42:00,
2013-01-08 10:53:00,29.0,7.0,-100.00,WNW,283,28.0,44.0,39,0.00,,,0.00,47.000000,,2013-01-08 17:53:00,
2013-01-08 11:23:00,30.0,8.0,-100.00,WNW,283,22.0,49.0,39,0.00,,,0.00,105.000000,,2013-01-08 18:23:00,
2013-01-08 11:33:00,30.0,8.0,-100.00,WNW,283,22.0,49.0,39,0.00,,,0.00,105.000000,,2013-01-08 18:33:00,
2013-01-08 11:43:00,30.0,8.0,-100.00,WNW,283,22.0,49.0,39,0.00,,,0.00,105.000000,,2013-01-08 18:43:00,
2013-01-08 11:52:00,30.0,8.0,-100.00,WNW,283,22.0,49.0,39,0.00,,,0.00,105.000000,,2013-01-08 18:52:00,
2013-01-08 12:12:00,31.0,7.0,-100.00,WSW,250,7.0,41.0,35,0.00,,,0.00,171.000000,,2013-01-08 19:12:00,
2013-01-08 12:22:00,31.0,7.0,-100.00,WSW,250,7.0,41.0,35,0.00,,,0.00,171.000000,,2013-01-08 19:22:00,
2013-01-08 12:32:00,31.0,7.0,-100.00,WSW,250,7.0,41.0,35,0.00,,,0.00,171.000000,,2013-01-08 19:32:00,
2013-01-08 12:42:00,31.0,7.0,-100.00,WSW,250,7.0,41.0,35,0.00,,,0.00,171.000000,,2013-01-08 19:42:00,
2013-01-08 12:52:00,31.0,7.0,-100.00,WSW,250,7.0,41.0,35,0.00,,,0.00,171.000000,,2013-01-08 19:52:00,
2013-01-08 13:22:00,32.0,6.0,-100.00,WSW,239,15.0,27.0,33,0.00,,,0.00,207.000000,,2013-01-08 20:22:00,
2013-01-08 13:33:00,32.0,6.0,-100.00,WSW,239,15.0,27.0,33,0.00,,,0.00,207.000000,,2013-01-08 20:33:00,
2013-01-08 13:43:00,32.0,6.0,-100.00,WSW,239,15.0,27.0,33,0.00,,,0.00,207.000000,,2013-01-08 20:43:00,
2013-01-08 13:53:00,32.0,6.0,-100.00,WSW,239,15.0,27.0,33,0.00,,,0.00,207.000000,,2013-01-08 20:53:00,
2013-01-08 14:12:00,33.0,8.0,-100.00,West,276,10.0,28.0,34,0.00,,,0.00,304.000000,,2013-01-08 21:12:00,
2013-01-08 14:22:00,33.0,8.0,-100.00,West,276,10.0,28.0,34,0.00,,,0.00,304.000000,,2013-01-08 21:22:00,
2013-01-08 14:33:00,33.0,8.0,-100.00,West,276,10.0,28.0,34,0.00,,,0.00,304.000000,,2013-01-08 21:33:00,
2013-01-08 14:42:00,33.0,8.0,-100.00,West,276,10.0,28.0,34,0.00,,,0.00,304.000000,,2013-01-08 21:42:00,
2013-01-08 14:52:00,33.0,8.0,-100.00,West,276,10.0,28.0,34,0.00,,,0.00,304.000000,,2013-01-08 21:52:00,
2013-01-08 15:12:00,32.0,10.0,-100.00,SW,223,12.0,27.0,40,0.00,,,0.00,164.000000,,2013-01-08 22:12:00,
2013-01-08 15:22:00,32.0,10.0,-100.00,SW,223,12.0,27.0,40,0.00,,,0.00,164.000000,,2013-01-08 22:22:00,
2013-01-08 15:32:00,32.0,10.0,-100.00,SW,223,12.0,27.0,40,0.00,,,0.00,164.000000,,2013-01-08 22:32:00,
2013-01-08 15:42:00,32.0,10.0,-100.00,SW,223,12.0,27.0,40,0.00,,,0.00,164.000000,,2013-01-08 22:42:00,
2013-01-08 15:52:00,32.0,10.0,-100.00,SW,223,12.0,27.0,40,0.00,,,0.00,164.000000,,2013-01-08 22:52:00,
2013-01-08 16:22:00,31.0,15.0,-100.00,SW,227,15.0,22.0,50,0.00,,,0.00,95.000000,,2013-01-08 23:22:00,
2013-01-08 16:32:00,31.0,15.0,-100.00,SW,227,15.0,22.0,50,0.00,,,0.00,95.000000,,2013-01-08 23:32:00,
2013-01-08 16:42:00,31.0,15.0,-100.00,SW,227,15.0,22.0,50,0.00,,,0.00,95.000000,,2013-01-08 23:42:00,
2013-01-08 16:52:00,31.0,15.0,-100.00,SW,227,15.0,22.0,50,0.00,,,0.00,95.000000,,2013-01-08 23:52:00,
2013-01-08 17:12:00,30.0,15.0,-100.00,SW,231,11.0,23.0,52,0.00,,,0.00,32.000000,,2013-01-09 00:12:00,
2013-01-08 17:22:00,30.0,15.0,-100.00,SW,231,11.0,23.0,52,0.00,,,0.00,32.000000,,2013-01-09 00:22:00,
2013-01-08 17:32:00,30.0,15.0,-100.00,SW,231,11.0,23.0,52,0.00,,,0.00,32.000000,,2013-01-09 00:32:00,
2013-01-08 17:42:00,30.0,15.0,-100.00,SW,231,11.0,23.0,52,0.00,,,0.00,32.000000,,2013-01-09 00:42:00,
2013-01-08 17:52:00,30.0,15.0,-100.00,SW,231,11.0,23.0,52,0.00,,,0.00,32.000000,,2013-01-09 00:52:00,
2013-01-08 18:22:00,30.0,15.0,-100.00,WSW,240,9.0,19.0,52,0.00,,,0.00,0.000000,,2013-01-09 01:22:00,
2013-01-08 18:32:00,30.0,15.0,-100.00,WSW,240,9.0,19.0,52,0.00,,,0.00,0.000000,,2013-01-09 01:32:00,
2013-01-08 18:42:00,30.0,15.0,-100.00,WSW,240,9.0,19.0,52,0.00,,,0.00,0.000000,,2013-01-09 01:42:00,
2013-01-08 18:52:00,30.0,15.0,-100.00,WSW,240,9.0,19.0,52,0.00,,,0.00,0.000000,,2013-01-09 01:52:00,
2013-01-08 19:22:00,29.0,14.0,-100.00,SSW,211,11.0,12.0,54,0.00,,,0.00,0.000000,,2013-01-09 02:22:00,
2013-01-08 19:32:00,29.0,14.0,-100.00,SSW,211,11.0,12.0,54,0.00,,,0.00,0.000000,,2013-01-09 02:32:00,
2013-01-08 19:42:00,29.0,14.0,-100.00,SSW,211,11.0,12.0,54,0.00,,,0.00,0.000000,,2013-01-09 02:42:00,
2013-01-08 19:52:00,29.0,14.0,-100.00,SSW,211,11.0,12.0,54,0.00,,,0.00,0.000000,,2013-01-09 02:52:00,
2013-01-08 20:12:00,29.0,15.0,-100.00,SSW,210,9.0,14.0,56,0.00,,,0.00,0.000000,,2013-01-09 03:12:00,
2013-01-08 20:22:00,29.0,15.0,-100.00,SSW,210,9.0,14.0,56,0.00,,,0.00,0.000000,,2013-01-09 03:22:00,
2013-01-08 20:32:00,29.0,15.0,-100.00,SSW,210,9.0,14.0,56,0.00,,,0.00,0.000000,,2013-01-09 03:32:00,
2013-01-08 20:42:00,29.0,15.0,-100.00,SSW,210,9.0,14.0,56,0.00,,,0.00,0.000000,,2013-01-09 03:42:00,
2013-01-08 20:52:00,29.0,15.0,-100.00,SSW,210,9.0,14.0,56,0.00,,,0.00,0.000000,,2013-01-09 03:52:00,
2013-01-08 21:12:00,30.0,17.0,-100.00,SSW,209,13.0,18.0,57,0.00,,,0.00,0.000000,,2013-01-09 04:12:00,
2013-01-08 21:22:00,30.0,17.0,-100.00,SSW,209,13.0,18.0,57,0.00,,,0.00,0.000000,,2013-01-09 04:22:00,
2013-01-08 21:32:00,30.0,17.0,-100.00,SSW,209,13.0,18.0,57,0.00,,,0.00,0.000000,,2013-01-09 04:32:00,
2013-01-08 21:42:00,30.0,17.0,-100.00,SSW,209,13.0,18.0,57,0.00,,,0.00,0.000000,,2013-01-09 04:42:00,
2013-01-08 21:52:00,30.0,17.0,-100.00,SSW,209,13.0,18.0,57,0.00,,,0.00,0.000000,,2013-01-09 04:52:00,
2013-01-08 22:12:00,33.0,19.0,-100.00,SSW,198,14.0,22.0,57,0.00,,,0.00,0.000000,,2013-01-09 05:12:00,
2013-01-08 22:22:00,33.0,19.0,-100.00,SSW,198,14.0,22.0,57,0.00,,,0.00,0.000000,,2013-01-09 05:22:00,
2013-01-08 22:33:00,33.0,19.0,-100.00,SSW,198,14.0,22.0,57,0.00,,,0.00,0.000000,,2013-01-09 05:33:00,
2013-01-08 22:42:00,33.0,19.0,-100.00,SSW,198,14.0,22.0,57,0.00,,,0.00,0.000000,,2013-01-09 05:42:00,
2013-01-08 22:52:00,33.0,19.0,-100.00,SSW,198,14.0,22.0,57,0.00,,,0.00,0.000000,,2013-01-09 05:52:00,
2013-01-08 23:12:00,32.0,19.0,-100.00,SW,231,6.0,22.0,59,0.00,,,0.00,0.000000,,2013-01-09 06:12:00,
2013-01-08 23:22:00,32.0,19.0,-100.00,SW,231,6.0,22.0,59,0.00,,,0.00,0.000000,,2013-01-09 06:22:00,
2013-01-08 23:32:00,32.0,19.0,-100.00,SW,231,6.0,22.0,59,0.00,,,0.00,0.000000,,2013-01-09 06:32:00,
2013-01-08 23:42:00,32.0,19.0,-100.00,SW,231,6.0,22.0,59,0.00,,,0.00,0.000000,,2013-01-09 06:42:00,
2013-01-08 23:52:00,32.0,19.0,-100.00,SW,231,6.0,22.0,59,0.00,,,0.00,0.000000,,2013-01-09 06:52:00,